Dewpoint
27 26 27 28 32 32 32 33 32 29 28 30 35 36 36 36 36 36 36 36 36 34 32 29 27 28 30 33 34 34 35 35 37 37 36 37 37 37 37 37 37 37 38 38
31 31 28 30 28 31 32 32 32 31 30 34 36 37 34 32 32 33 34 34 34 31 29 26 27 29 32 33 33 35 35 35 35 35 35 36 36 35 36 36 37 37 37 38
31 32 33 31 31 32 33 34 33 32 34 35 36 36 35 32 31 32 33 32 31 29 27 27 30 31 32 33 35 34 34 33 33 34 34 34 34 34 34 35 35 36 37 37
33 35 29 33 33 31 33 34 35 35 36 36 37 37 37 32 30 31 32 30 29 27 27 29 31 32 35 34 34 33 33 33 34 35 34 34 35 35 35 35 36 36 37 37
34 33 33 34 37 36 35 34 35 34 34 35 37 36 34 34 31 32 31 29 27 26 28 31 31 33 34 33 32 33 33 33 34 35 34 34 34 35 36 36 35 36 35 34
32 32 30 32 36 37 39 35 39 38 38 36 34 34 35 32 29 29 27 24 25 28 29 30 32 33 32 32 32 32 33 34 34 34 33 33 33 34 34 33 33 34 33 34
32 33 35 36 30 38 34 35 36 39 40 40 34 37 37 31 28 24 22 24 27 29 29 31 32 32 31 31 31 33 34 33 33 33 33 33 32 32 32 32 33 34 32 33
32 32 31 33 32 36 38 29 29 40 37 36 35 28 29 27 21 22 25 28 28 28 29 30 31 31 30 30 33 33 33 33 32 32 31 30 31 32 32 32 33 32 32 32
35 35 36 33 31 30 29 27 28 38 33 30 26 23 22 22 25 26 27 27 27 28 30 30 30 30 29 32 33 32 31 31 30 30 31 31 32 32 32 32 31 29 29 30
36 37 36 30 27 25 25 26 26 32 30 28 25 23 23 24 25 26 26 27 27 28 29 30 30 29 29 32 31 30 31 32 30 31 30 30 31 32 32 32 31 30 30 31
35 34 30 30 28 29 26 28 29 28 27 26 24 23 24 25 26 26 27 28 28 28 28 28 28 30 31 30 28 27 28 30 31 31 31 30 29 30 31 33 31 30 31 31
36 36 37 37 36 30 29 29 29 24 23 23 23 24 26 26 27 27 27 29 28 28 27 27 29 29 28 27 24 24 25 28 28 29 29 28 28 30 27 28 29 29 29 31
39 38 34 30 30 29 29 29 25 24 24 23 24 25 26 26 27 28 27 27 27 26 27 28 28 27 24 25 25 24 23 24 28 29 29 28 28 28 27 30 25 25 25 26
33 30 28 26 28 28 28 26 25 23 23 24 25 25 25 26 28 29 29 27 27 27 29 29 28 28 29 27 27 28 28 28 29 30 31 29 27 27 27 27 26 28 28 26
30 30 31 28 27 25 24 22 22 22 23 23 25 25 26 26 27 29 29 29 30 29 29 28 26 27 29 29 29 30 30 30 29 29 28 29 27 27 27 26 27 26 28 27
30 27 26 27 25 23 23 22 23 22 23 24 24 25 26 27 27 26 28 28 27 27 27 25 25 27 28 28 29 28 28 27 25 26 27 28 28 25 26 25 26 27 27 27
28 26 27 25 25 23 23 24 25 24 24 24 25 26 26 25 24 26 26 27 28 27 27 27 26 25 26 28 28 28 28 28 25 26 26 26 28 26 26 25 25 26 27 28
30 28 27 28 26 25 24 25 26 25 25 27 27 28 27 26 24 24 25 25 23 22 25 27 26 24 24 24 24 25 25 25 25 26 27 27 27 27 26 24 24 24 25 26
29 29 29 27 27 27 28 27 27 28 29 28 27 27 28 28 27 26 25 23 23 21 24 22 21 20 17 20 22 23 24 25 25 25 26 26 26 25 25 25 25 25 25 24
29 29 29 28 29 28 27 27 28 27 28 29 28 27 27 26 25 24 24 22 20 22 24 24 23 23 24 25 25 26 27 27 27 27 29 28 29 28 26 22 23 25 26 26
29 29 29 29 27 28 28 28 28 27 28 28 28 27 26 22 22 23 24 22 28 25 24 26 27 28 29 29 28 30 30 30 29 29 29 28 27 26 26 25 25 26 26 25
29 29 28 28 27 27 28 28 26 25 25 23 22 22 21 21 23 25 27 28 28 27 28 27 26 23 23 22 25 28 26 26 26 26 26 25 25 25 25 25 25 25 25 25
29 28 27 26 26 27 27 26 25 25 26 27 27 28 28 29 28 27 26 25 25 24 24 25 21 20 19 27 27 27 26 25 25 25 25 25 25 25 25 24 24 24 24 23
27 27 27 27 27 27 26 27 28 28 28 28 27 28 27 26 26 26 26 23 20 22 23 24 22 17 14 24 24 24 24 24 24 24 23 21 24 23 23 23 23 23 23 20
27 27 27 27 27 26 26 25 24 24 24 23 24 23 22 21 25 24 24 23 18 17 21 15 13 12 20 20 21 21 21 21 21 20 19 19 19 19 21 21 21 21 21 21
26 27 26 27 26 26 25 24 24 23 22 22 23 23 23 23 22 22 21 17 19 15 19 20 18 17 18 19 19 19 19 17 17 17 16 16 16 16 16 17 18 19 20 20
26 26 25 25 25 24 24 24 23 22 22 24 22 21 21 21 20 18 14 19 19 18 17 18 17 16 16 17 17 17 17 17 15 16 16 17 16 17 17 17 17 17 18 18
Lifted_Index
6 5 4 4 3 3 3 4 5 5 5 5 4 4 4 3 3 4 4 4 4 4 4 5 6 8 10 11 13 14 15 15 16 16 17 17 18 18 18 17 16 16 16 16
5 5 4 4 4 4 4 5 5 6 6 5 4 4 4 3 3 3 4 3 3 4 4 5 6 8 10 12 13 14 15 15 15 16 16 17 18 18 17 16 16 16 16 15
4 4 4 4 6 6 5 5 5 6 5 4 4 4 4 3 3 3 3 3 3 4 5 6 7 9 11 13 14 14 14 14 15 15 16 17 17 17 16 16 16 15 15 14
3 3 3 5 6 6 5 5 5 5 4 4 4 4 4 4 3 3 3 3 3 4 5 7 9 11 13 14 14 14 14 14 14 14 15 17 17 16 16 15 15 14 14 13
2 2 3 5 5 4 4 4 4 4 3 3 4 4 4 4 3 3 3 3 4 5 6 8 11 13 14 14 14 14 13 13 13 14 16 17 16 16 15 15 14 14 13 13
1 2 3 4 4 3 3 4 3 3 3 3 3 3 3 3 3 3 4 4 5 6 7 10 13 14 15 14 14 13 13 13 14 16 16 16 16 15 15 14 14 14 14 14
1 1 2 3 3 3 3 3 3 2 2 2 3 3 3 3 3 3 4 4 6 7 9 12 14 15 15 14 13 13 14 15 16 17 16 16 15 15 15 15 15 15 15 14
1 1 2 3 2 2 2 2 2 2 3 3 3 3 3 3 3 3 3 5 6 9 11 14 15 15 14 13 12 14 16 17 17 17 16 16 16 16 16 16 16 15 14 14
2 2 2 2 2 2 2 2 3 3 4 4 3 3 3 3 3 3 4 5 8 11 13 14 15 13 12 12 13 15 17 18 18 17 17 17 17 17 17 16 15 14 13 12
2 2 2 2 2 2 3 3 4 5 5 5 4 4 4 4 4 4 5 7 10 12 13 14 13 12 12 13 16 17 18 18 18 18 17 17 17 17 16 15 14 13 12 11
2 2 2 2 2 3 3 4 5 5 5 5 5 5 5 5 5 5 7 10 12 13 13 12 12 12 13 16 17 18 17 17 17 17 17 17 17 16 16 15 13 12 10 10
1 2 2 2 3 3 3 4 5 5 5 6 6 7 7 6 6 7 9 12 13 13 12 12 12 13 16 17 18 17 17 17 17 17 16 16 15 15 14 13 11 10 9 9
2 2 2 3 3 3 4 5 5 6 6 7 7 7 7 7 8 10 12 13 13 12 12 13 14 15 17 18 18 17 17 17 16 16 15 15 14 13 11 10 9 8 9 9
2 3 3 3 3 3 4 5 5 6 8 8 8 8 8 8 10 12 13 13 13 13 14 15 16 17 18 18 18 17 17 16 16 15 14 13 12 11 9 8 7 7 8 8
3 3 3 3 3 4 4 5 6 7 8 9 9 9 9 10 12 13 14 14 15 15 15 16 17 17 18 18 17 17 16 16 15 14 13 12 11 9 8 7 7 7 8 8
2 3 3 3 4 4 5 6 7 8 9 10 11 11 12 12 13 13 14 15 15 16 16 16 17 17 17 17 17 16 15 15 14 13 12 10 9 8 7 7 7 7 7 8
3 3 3 4 4 5 6 8 9 9 10 11 12 12 13 13 13 14 15 15 16 16 16 16 17 17 17 16 16 15 14 14 13 11 10 8 7 7 7 7 7 7 8 8
3 4 4 5 5 6 7 9 9 10 10 11 11 12 12 13 13 14 15 15 15 15 16 16 16 16 16 15 14 13 12 11 10 9 8 7 7 7 7 7 7 8 8 9
4 5 6 6 6 7 8 8 9 9 10 10 11 12 12 13 13 14 14 14 14 14 14 14 14 14 13 12 11 10 9 8 8 7 7 7 7 7 7 7 8 8 9 9
5 6 6 7 7 8 8 8 9 10 10 11 11 12 13 13 13 13 13 13 12 12 12 12 11 11 10 9 8 8 7 7 7 7 7 7 7 7 8 8 9 9 10 10
6 7 7 7 7 8 8 9 9 10 10 11 11 12 12 12 12 12 11 11 11 10 10 10 9 8 8 7 7 7 7 7 8 8 8 9 9 9 9 10 10 10 11 11
7 7 8 8 8 8 9 9 9 10 10 11 11 11 11 10 10 10 9 9 9 9 8 8 8 7 7 8 8 9 9 10 10 10 11 11 11 11 11 11 11 11 12 12
7 8 8 8 8 9 9 9 9 9 9 10 10 10 9 8 8 8 8 8 8 8 8 8 8 9 10 10 11 12 12 12 13 13 13 13 13 13 13 13 13 13 13 13
8 8 8 8 8 8 8 8 9 9 9 9 9 8 8 7 7 7 7 8 8 9 10 10 11 12 13 14 14 14 14 15 15 15 15 15 15 15 15 15 15 15 15 15
8 8 8 8 8 8 8 8 8 8 8 8 8 8 8 7 8 8 9 10 11 12 13 13 14 15 15 15 16 16 16 16 16 16 16 16 16 16 16 16 16 16 15 15
8 8 8 8 7 7 7 7 7 7 7 7 7 8 8 9 10 11 12 13 14 14 15 15 16 16 16 16 16 16 17 17 17 17 17 17 17 17 17 16 16 16 15 15
7 7 7 7 7 7 6 6 6 6 6 7 7 8 9 11 12 13 14 14 15 15 16 16 16 16 16 16 16 17 17 17 17 17 17 17 17 17 17 17 16 16 15 14